Ralph M Calhoun Memorial Airport

Jump to: basic info | weather | runways | comments

Related pages: nearby airports | nearby navaids | notams | map

Basic information (top)

Codes: TAL PATA
Location: lon 65.174400, lat -152.108994, elev 236 ft / 72 m msl
Status: small_airport
Scheduled airline service: no
Links: Wikipedia Mobile

Weather (top)

Current conditions (rec'd 2015/04/26 16:52Z):

PATA 261652Z 00000KT 10SM FEW130 FEW180 03/M03 A2978 RMK AO2 SLP088 T00331033 PNO

Airport forecast (rec'd 2015/04/26 12:36Z):

TAF PATA 261132Z 2612/2712 VRB03KT P6SM SCT090 
     FM261500 VRB04KT P6SM SCT100 BKN150 
     FM270300 34006KT P6SM BKN150

Runways (top)

07/25: 4,400 x 150 ft (1,341 x 46 m) — other (GRVL-P) — not lighted

Latest comments (top)

Memorial for what?: As I did not know him personally, I did ... [read]

More... (top)

See also NOTAMs and nearby airports and navaids, or visit the Ralph M Calhoun Memorial Airport page at the main OurAirports website..